カタログに戻る

STARLINK-34293

運用中通信VLEO
NORAD 64275·PAYLOAD·🇺🇸 United States

打ち上げ Jun 4, 2025 から Vandenberg Space Force Base

Loading…

次のパス (今後24時間)

TLE

最新Source: CelesTrak SupGP

元期: Sep 15, 2026, 03:40 UTC

1 64275C 25120V   26258.15326389  .00037192  00000+0  10985-2 0  2588
2 64275  53.1589 314.7125 0001372  95.1714 176.8755 15.34381675    13

AllMySatでSTARLINK-34293をリアルタイム追跡

Download on the App Store